TimeEST,TemperatureF,Dew PointF,Humidity,Sea Level PressureIn,VisibilityMPH,Wind Direction,Wind SpeedMPH,Gust SpeedMPH,PrecipitationIn,Events,Conditions,WindDirDegrees,DateUTC
12:53 AM,23.0,16.0,74,30.32,10.0,East,8.1,-,N/A,,Clear,100,2013-02-07 05:53:00
1:53 AM,21.0,15.1,78,30.30,10.0,ESE,9.2,-,N/A,,Clear,120,2013-02-07 06:53:00
2:53 AM,24.1,16.0,71,30.27,10.0,East,10.4,-,N/A,,Clear,100,2013-02-07 07:53:00
3:53 AM,21.9,16.0,78,30.27,10.0,ENE,5.8,-,N/A,,Clear,60,2013-02-07 08:53:00
4:53 AM,21.0,15.1,78,30.30,10.0,NE,3.5,-,N/A,,Clear,40,2013-02-07 09:53:00
5:53 AM,21.9,16.0,78,30.31,8.0,NE,5.8,-,N/A,,Clear,50,2013-02-07 10:53:00
6:53 AM,24.1,17.1,75,30.30,9.0,East,8.1,-,N/A,,Overcast,90,2013-02-07 11:53:00
7:53 AM,24.1,18.0,77,30.29,7.0,East,6.9,-,N/A,,Overcast,100,2013-02-07 12:53:00
8:53 AM,26.1,19.0,75,30.29,7.0,East,8.1,-,N/A,,Overcast,90,2013-02-07 13:53:00
9:53 AM,28.0,21.0,75,30.26,8.0,East,6.9,-,N/A,,Scattered Clouds,100,2013-02-07 14:53:00
10:53 AM,30.9,21.9,69,30.25,9.0,ESE,6.9,-,N/A,,Partly Cloudy,110,2013-02-07 15:53:00
11:53 AM,34.0,24.1,67,30.23,10.0,East,6.9,-,N/A,,Overcast,80,2013-02-07 16:53:00
12:53 PM,37.0,24.1,59,30.18,10.0,East,9.2,-,N/A,,Scattered Clouds,90,2013-02-07 17:53:00
1:53 PM,39.0,25.0,57,30.14,10.0,ENE,10.4,-,N/A,,Scattered Clouds,60,2013-02-07 18:53:00
2:53 PM,41.0,25.0,53,30.11,10.0,ESE,10.4,-,N/A,,Clear,110,2013-02-07 19:53:00
3:53 PM,43.0,25.0,49,30.09,10.0,East,11.5,-,N/A,,Partly Cloudy,100,2013-02-07 20:53:00
4:53 PM,43.0,26.1,51,30.09,10.0,East,9.2,-,N/A,,Overcast,100,2013-02-07 21:53:00
5:53 PM,41.0,26.1,55,30.07,10.0,East,9.2,-,N/A,,Mostly Cloudy,100,2013-02-07 22:53:00
6:53 PM,39.0,26.1,60,30.05,10.0,ESE,12.7,-,N/A,,Partly Cloudy,110,2013-02-07 23:53:00
7:53 PM,39.0,27.0,62,30.03,10.0,East,10.4,-,N/A,,Clear,100,2013-02-08 00:53:00
8:53 PM,37.0,28.0,70,30.01,10.0,ESE,10.4,-,N/A,,Clear,120,2013-02-08 01:53:00
9:53 PM,37.0,28.0,70,30.00,10.0,SE,10.4,-,N/A,,Clear,130,2013-02-08 02:53:00
10:53 PM,36.0,28.0,73,29.98,10.0,ESE,10.4,-,N/A,,Clear,120,2013-02-08 03:53:00